Location: Unspecified
(0.0000°N, 0.0000°E)
Time: 13:38:52
(UTC+00:00)

A-11 Canister half - Pass Details

Date: 21 November 2019
Orbit: 1526 x 1683 km, 47.3° (Epoch: 08 December)

Event Time Altitude Azimuth Distance (km) Brightness Sun altitude
Rises 18:16:42 0° 343° (NNW) 4,715 11.5 -7.2°
Reaches altitude 10° 18:20:35 10° 357° (N) 3,714 10.9 -8.2°
Maximum altitude 18:27:46 25° 48° (NE) 2,718 9.8 -9.8°
Drops below altitude 10° 18:34:53 10° 99° (E) 3,688 10.5 -11.5°
Enters shadow 18:37:02 - 107° (ESE) 4,228 10.8 -12.0°
Sets 18:38:40 0° 112° (ESE) 4,676 - -12.4°
